Weather History for Massena, NY

Change the Weather History Date:

Monday, February 18, 2013

  Actual Average Record
Temperature  
Mean Temperature 10 °F 18 °F  
Max Temperature 18 °F 29 °F 56 °F (1981)
Min Temperature 1 °F 8 °F -23 °F (1979)
Degree Days  
Heating Degree Days 55 47  
Month to date heating degree days 920 874  
Since 1 July heating degree days 5128 5537  
Moisture  
Dew Point -3 °F    
Average Humidity 61    
Maximum Humidity 76    
Minimum Humidity 46    
Precipitation  
Precipitation 0.00 in 0.07 in 0.22 in (1958)
Month to date precipitation 0.10 1.09  
Year to date precipitation 1.54 3.27  
Sea Level Pressure  
Sea Level Pressure 30.20 in    
Wind  
Wind Speed 9 mph (WSW)    
Max Wind Speed 17 mph    
Max Gust Speed 22 mph    
Visibility 10 miles    
Events      
T = Trace of Precipitation, MM = Missing Value Source: NWS Daily Summary

Daily Weather History Graph

Daily Weather History Graph

Search for Another Location

Airport:

Trip Planner

Search our weather history database for the weather conditions in past years. The results will help you decide how hot, cold, wet, or windy it might be!

Date:

Astronomy

Feb. 18, 2013 Rise Set
Actual Time 6:55 AM EST 5:32 PM EST
Civil Twilight 6:25 AM EST 6:02 PM EST
Nautical Twilight 5:51 AM EST 6:36 PM EST
Astronomical Twilight 5:17 AM EST 7:10 PM EST
Moon 11:08 AM EST (2/18) 1:39 AM EST (2/18)
Length of Visible Light 11h 36m
Length of Day
10h 36m
First Quarter, 58% of the Moon is Illuminated
Feb 18
First Quarter
Feb 25
Full
Mar 4
Last Quarter
Mar 11
New
Mar 19
First Quarter

Hourly Weather History & Observations

Time (EST) Temp. Windchill Dew Point Humidity Pressure Visibility Wind Dir Wind Speed Gust Speed Precip Events Conditions
12:53 AM 5.0 °F -8.1 °F -5.1 °F 63% 30.09 in 10.0 mi WSW 8.1 mph - N/A   Clear
1:53 AM 3.9 °F -13.0 °F -5.1 °F 66% 30.12 in 10.0 mi WSW 12.7 mph 19.6 mph N/A   Clear
2:53 AM 3.0 °F -12.5 °F -5.1 °F 69% 30.13 in 10.0 mi WSW 10.4 mph - N/A   Clear
3:53 AM 3.0 °F -12.5 °F -6.0 °F 66% 30.15 in 10.0 mi WSW 10.4 mph - N/A   Clear
4:53 AM 1.9 °F -13.8 °F -6.0 °F 69% 30.19 in 10.0 mi WSW 10.4 mph - N/A   Clear
5:53 AM 1.9 °F -13.8 °F -7.1 °F 66% 30.21 in 10.0 mi WSW 10.4 mph - N/A   Clear
6:53 AM 1.0 °F -14.9 °F -7.1 °F 69% 30.23 in 10.0 mi SW 10.4 mph - N/A   Clear
7:53 AM 1.9 °F -15.5 °F -6.0 °F 69% 30.26 in 10.0 mi WSW 12.7 mph - N/A   Clear
8:53 AM 5.0 °F -12.3 °F -4.0 °F 66% 30.23 in 10.0 mi WSW 13.8 mph - N/A   Clear
9:53 AM 6.1 °F -10.2 °F -4.0 °F 63% 30.28 in 10.0 mi WSW 12.7 mph - N/A   Clear
10:53 AM 9.0 °F -6.6 °F -2.9 °F 59% 30.27 in 10.0 mi WSW 12.7 mph - N/A   Clear
11:53 AM 12.0 °F -4.5 °F -2.0 °F 53% 30.26 in 10.0 mi WSW 16.1 mph - N/A   Clear
12:53 PM 15.1 °F 0.5 °F -0.9 °F 49% 30.24 in 10.0 mi SW 13.8 mph 18.4 mph N/A   Clear
1:53 PM 16.0 °F 2.3 °F -2.0 °F 45% 30.23 in 10.0 mi West 12.7 mph - N/A   Clear
2:53 PM 18.0 °F 3.6 °F -0.9 °F 44% 30.23 in 10.0 mi WSW 15.0 mph - N/A   Clear
3:53 PM 18.0 °F 6.9 °F -0.0 °F 45% 30.22 in 10.0 mi SW 9.2 mph - N/A   Clear
4:53 PM 18.0 °F 6.9 °F -0.0 °F 45% 30.21 in 10.0 mi SW 9.2 mph - N/A   Clear
5:53 PM 16.0 °F 8.8 °F -0.9 °F 47% 30.22 in 10.0 mi SW 4.6 mph - N/A   Clear
6:53 PM 12.9 °F - -2.9 °F 49% 30.22 in 10.0 mi Calm Calm - N/A   Clear
7:53 PM 7.0 °F - -5.1 °F 58% 30.20 in 10.0 mi Calm Calm - N/A   Clear
8:53 PM 7.0 °F - -2.0 °F 67% 30.19 in 10.0 mi Calm Calm - N/A   Mostly Cloudy
9:53 PM 7.0 °F - -2.0 °F 67% 30.16 in 10.0 mi Calm Calm - N/A   Scattered Clouds
10:53 PM 7.0 °F - -0.9 °F 70% 30.14 in 10.0 mi Calm Calm - N/A   Scattered Clouds
11:53 PM 10.0 °F - 1.9 °F 70% 30.12 in 10.0 mi Calm Calm - N/A   Scattered Clouds